"2002/01/01",114,115,114
"2002/01/02",115,115,115
"2002/01/03",115,115,114
"2002/01/04",115,115,115
"2002/01/05",116,116,115
"2002/01/06",116,116,115
"2002/01/07",116,116,116
"2002/01/08",117,118,116
"2002/01/09",117,117,117
"2002/01/10",117,118,117
"2002/01/11",118,118,118
"2002/01/12",118,119,118
"2002/01/13",119,119,118
"2002/01/14",119,119,119
"2002/01/15",119,119,119
"2002/01/16",119,120,119
"2002/01/17",119,119,118
"2002/01/18",117,118,115
"2002/01/19",115,116,115
"2002/01/20",116,116,116
"2002/01/21",118,124,116
"2002/01/22",124,125,121
"2002/01/23",118,121,116
"2002/01/24",116,117,115
"2002/01/25",114,115,113
"2002/01/26",113,115,113
"2002/01/27",135,140,115
"2002/01/28",133,135,132
"2002/01/29",132,133,132
"2002/01/30",131,132,130
"2002/01/31",128,130,127
"2002/02/01",124,127,122
"2002/02/02",119,122,117
"2002/02/03",116,117,115
"2002/02/04",115,115,114
"2002/02/05",115,117,115
"2002/02/06",119,120,117
"2002/02/07",115,118,113
"2002/02/08",113,113,113
"2002/02/09",113,114,113
"2002/02/10",114,114,114
"2002/02/11",115,115,114
"2002/02/12",115,115,115
"2002/02/13",116,116,115
"2002/02/14",117,117,116
"2002/02/15",117,117,117
"2002/02/16",117,118,117
"2002/02/17",118,118,118
"2002/02/18",119,119,119
"2002/02/19",119,119,118
"2002/02/20",119,119,117
"2002/02/21",114,117,113
"2002/02/22",112,113,112
"2002/02/23",112,112,112
"2002/02/24",112,112,112
"2002/02/25",112,113,112
"2002/02/26",113,113,113
"2002/02/27",113,113,113
"2002/02/28",114,114,113
"2002/03/01",114,114,114
"2002/03/02",115,115,114
"2002/03/03",115,115,115
"2002/03/04",115,115,115
"2002/03/05",115,115,115
"2002/03/06",116,116,115
"2002/03/07",116,116,116
"2002/03/08",116,116,115
"2002/03/09",113,115,112
"2002/03/10",111,112,111
"2002/03/11",111,111,111
"2002/03/12",111,111,111
"2002/03/13",111,111,111
"2002/03/14",111,111,111
"2002/03/15",111,111,110
"2002/03/16",111,112,111
"2002/03/17",112,112,111
"2002/03/18",112,112,111
"2002/03/19",112,112,111
"2002/03/20",111,111,111
"2002/03/21",111,112,109
"2002/03/22",110,112,109
"2002/03/23",112,112,112
"2002/03/24",112,112,112
"2002/03/25",112,112,112
"2002/03/26",112,112,112
"2002/03/27",115,119,112
"2002/03/28",119,119,119
"2002/03/29",118,119,116
"2002/03/30",120,124,116
"2002/03/31",114,116,113
"2002/04/01",113,113,113
"2002/04/02",113,113,113
"2002/04/03",114,114,113
"2002/04/04",115,115,114
"2002/04/05",115,115,115
"2002/04/06",114,115,113
"2002/04/07",113,113,112
"2002/04/08",112,112,112
"2002/04/09",112,113,112
"2002/04/10",113,113,113
"2002/04/11",112,113,112
"2002/04/12",113,114,112
"2002/04/13",114,114,114
"2002/04/14",114,115,114
"2002/04/15",114,114,113
"2002/04/16",113,113,112
"2002/04/17",112,112,110
"2002/04/18",112,112,111
"2002/04/19",112,112,111
"2002/04/20",111,111,111
"2002/04/21",111,113,110
"2002/04/22",113,114,112
"2002/04/23",114,114,113
"2002/04/24",113,113,113
"2002/04/25",113,113,113
"2002/04/26",113,113,112
"2002/04/27",112,112,112
"2002/04/28",111,112,110
"2002/04/29",110,110,109
"2002/04/30",108,109,108
"2002/05/01",108,108,107
"2002/05/02",108,108,108
"2002/05/03",108,108,107
"2002/05/04",107,107,106
"2002/05/05",106,106,106
"2002/05/06",106,106,105
"2002/05/07",107,111,105
"2002/05/08",111,111,111
"2002/05/09",112,112,111
"2002/05/10",112,113,112
"2002/05/11",117,119,114
"2002/05/12",121,122,120
"2002/05/13",123,124,122
"2002/05/14",122,124,118
"2002/05/15",115,118,113
"2002/05/16",112,113,111
"2002/05/17",111,112,111
"2002/05/18",114,116,112
"2002/05/19",118,120,116
"2002/05/20",122,123,120
"2002/05/21",123,124,121
"2002/05/22",118,121,115
"2002/05/23",113,115,111
"2002/05/24",111,111,111
"2002/05/25",111,111,110
"2002/05/26",110,110,109
"2002/05/27",111,114,109
"2002/05/28",113,113,113
"2002/05/29",113,113,113
"2002/05/30",113,113,113
"2002/05/31",112,113,112
"2002/06/01","*","*","*"
"2002/06/02","*","*","*"
"2002/06/03","*","*","*"
"2002/06/04","*","*","*"
"2002/06/05","*","*","*"
"2002/06/06","*","*","*"
"2002/06/07",108,108,108
"2002/06/08",107,107,107
"2002/06/09",107,107,106
"2002/06/10",106,106,105
"2002/06/11",105,105,104
"2002/06/12",105,106,104
"2002/06/13",106,106,105
"2002/06/14",106,106,106
"2002/06/15",108,109,106
"2002/06/16",110,110,109
"2002/06/17",110,110,110
"2002/06/18",116,124,110
"2002/06/19",125,127,124
"2002/06/20",126,127,125
"2002/06/21",126,129,121
"2002/06/22",119,121,116
"2002/06/23",115,116,114
"2002/06/24",115,116,115
"2002/06/25",117,117,115
"2002/06/26",118,119,117
"2002/06/27",119,121,119
"2002/06/28",120,121,117
"2002/06/29",114,116,113
"2002/06/30",116,116,114
"2002/07/01",119,120,116
"2002/07/02",120,120,120
"2002/07/03",121,122,120
"2002/07/04",122,122,122
"2002/07/05",120,122,116
"2002/07/06",114,116,111
"2002/07/07",111,111,110
"2002/07/08",110,110,110
"2002/07/09",110,110,110
"2002/07/10",113,124,110
"2002/07/11",131,133,130
"2002/07/12",132,134,131
"2002/07/13",134,135,134
"2002/07/14",134,135,131
"2002/07/15",129,131,127
"2002/07/16",131,137,125
"2002/07/17",130,132,128
"2002/07/18",126,128,124
"2002/07/19",122,124,118
"2002/07/20",115,118,112
"2002/07/21",110,112,109
"2002/07/22",109,109,108
"2002/07/23",108,108,107
"2002/07/24",107,107,107
"2002/07/25",107,107,106
"2002/07/26",106,106,105
"2002/07/27",105,106,105
"2002/07/28",105,105,104
"2002/07/29",104,104,103
"2002/07/30",103,103,102
"2002/07/31",102,103,102
"2002/08/01","*","*","*"
"2002/08/02",113,115,112
"2002/08/03",111,112,111
"2002/08/04",111,111,110
"2002/08/05",110,111,110
"2002/08/06",110,110,110
"2002/08/07",110,110,109
"2002/08/08",109,109,108
"2002/08/09",107,108,106
"2002/08/10",105,106,104
"2002/08/11",104,104,103
"2002/08/12",103,103,102
"2002/08/13",102,102,101
"2002/08/14",101,101,101
"2002/08/15",101,101,100
"2002/08/16",100,100,100
"2002/08/17",100,100, 99
"2002/08/18",100,100, 99
"2002/08/19",101,103,100
"2002/08/20",103,103,103
"2002/08/21",102,103,102
"2002/08/22",102,102,101
"2002/08/23",102,107,101
"2002/08/24",107,108,107
"2002/08/25",108,108,107
"2002/08/26",109,109,108
"2002/08/27",109,109,109
"2002/08/28",109,109,109
"2002/08/29",109,109,109
"2002/08/30",109,109,109
"2002/08/31",108,109,108
"2002/09/01",108,108,108
"2002/09/02",108,108,108
"2002/09/03",108,108,107
"2002/09/04",107,108,107
"2002/09/05",108,108,108
"2002/09/06",115,124,108
"2002/09/07",119,119,119
"2002/09/08",122,124,119
"2002/09/09",126,127,124
"2002/09/10",128,128,126
"2002/09/11",123,126,120
"2002/09/12",117,120,115
"2002/09/13",115,118,113
"2002/09/14",113,113,112
"2002/09/15",113,113,112
"2002/09/16",114,115,113
"2002/09/17",115,116,115
"2002/09/18",117,118,116
"2002/09/19",118,118,118
"2002/09/20",117,118,115
"2002/09/21",113,114,111
"2002/09/22",111,111,111
"2002/09/23",112,112,111
"2002/09/24",112,112,112
"2002/09/25",112,112,112
"2002/09/26",112,112,112
"2002/09/27",112,112,112
"2002/09/28",118,122,112
"2002/09/29",122,123,121
"2002/09/30",124,126,123
"2002/10/01",134,148,126
"2002/10/02",145,147,143
"2002/10/03",144,144,143
"2002/10/04",143,144,141
"2002/10/05",138,141,135
"2002/10/06",132,135,128
"2002/10/07",125,128,122
"2002/10/08",119,122,115
"2002/10/09",113,115,112
"2002/10/10",112,112,112
"2002/10/11",112,112,112
"2002/10/12",112,113,112
"2002/10/13",113,113,113
"2002/10/14",113,113,113
"2002/10/15",113,114,113
"2002/10/16",118,120,113
"2002/10/17",117,117,117
"2002/10/18",117,118,117
"2002/10/19",118,118,118
"2002/10/20",119,119,118
"2002/10/21",122,126,119
"2002/10/22",126,127,126
"2002/10/23",126,127,125
"2002/10/24",123,125,121
"2002/10/25",119,121,117
"2002/10/26",115,117,114
"2002/10/27",113,114,113
"2002/10/28",114,114,114
"2002/10/29",114,114,113
"2002/10/30",114,114,114
"2002/10/31",114,115,114
"2002/11/01",116,118,115
"2002/11/02",117,118,117
"2002/11/03",117,117,117
"2002/11/04",117,118,117
"2002/11/05",118,118,118
"2002/11/06",118,118,118
"2002/11/07",118,118,118
"2002/11/08",118,118,118
"2002/11/09",118,118,117
"2002/11/10",118,118,117
"2002/11/11",118,118,118
"2002/11/12",118,119,118
"2002/11/13",119,119,119
"2002/11/14",119,119,119
"2002/11/15",119,119,119
"2002/11/16",120,120,119
"2002/11/17","*","*","*"
"2002/11/18",119,119,119
"2002/11/19",119,119,119
"2002/11/20",116,119,113
"2002/11/21",112,113,112
"2002/11/22",112,112,112
"2002/11/23",112,112,112
"2002/11/24",112,113,112
"2002/11/25",113,117,112
"2002/11/26",117,117,117
"2002/11/27",117,117,117
"2002/11/28",117,117,116
"2002/11/29",117,117,117
"2002/11/30",117,118,117
"2002/12/01",118,119,118
"2002/12/02",119,119,119
"2002/12/03",119,119,119
"2002/12/04",121,124,119
"2002/12/05",124,124,124
"2002/12/06",125,125,124
"2002/12/07",124,125,123
"2002/12/08",122,123,121
"2002/12/09",121,121,121
"2002/12/10",122,123,121
"2002/12/11",124,125,123
"2002/12/12",125,126,125
"2002/12/13",124,126,120
"2002/12/14",116,120,114
"2002/12/15",114,114,113
"2002/12/16",113,114,113
"2002/12/17",115,116,114
"2002/12/18",116,116,115
"2002/12/19",117,117,116
"2002/12/20",117,117,117
"2002/12/21",119,121,117
"2002/12/22",123,124,122
"2002/12/23",124,124,124
"2002/12/24",125,125,124
"2002/12/25",125,126,125
"2002/12/26",124,125,123
"2002/12/27",121,122,118
"2002/12/28",115,118,114
"2002/12/29",113,114,113
"2002/12/30",113,113,113
"2002/12/31",114,114,113
